Simultaneous Nadir Overpasses (SNOs) Predictions

Prediction of SNOs between AQUA and NPP Satellite Orbit:

Table of predicted SNOs for the next 14.0 days since TLE Epoch: 1/10/2025
Index Date (AQUA) Time (AQUA) Lat,Lon (AQUA) SZA (AQUA ) Date (NPP) Time (NPP) Lat,Lon (NPP) SZA (NPP ) Distance(km) Time Diff (sec)
1 01/12/2025 17:12:45 -81.29, 31.23 71.32 01/12/2025 17:12:49 -81.30, 31.25 71.32 0.93 4
2 01/15/2025 03:34:33 81.30, 56.11 108.25 01/15/2025 03:34:30 81.30, 56.09 108.26 0.56 3
3 01/17/2025 13:56:21 -81.29, 80.51 72.17 01/17/2025 13:56:13 -81.30, 80.54 72.17 0.76 8
4 01/20/2025 00:18:07 81.29, 105.04 107.36 01/20/2025 00:17:54 81.30, 105.22 107.35 3.29 13
5 01/20/2025 01:07:26 -81.30, -87.11 72.67 01/20/2025 01:08:39 -81.30, -87.22 72.70 1.78 73
6 01/22/2025 10:39:50 -81.30, 129.97 73.20 01/22/2025 10:39:35 -81.30, 129.97 73.20 0.49 15
7 01/22/2025 11:29:09 81.30, -62.38 106.80 01/22/2025 11:30:18 81.30, -62.21 106.73 2.85 69



Historial Predications of SNOs between AQUA and NPP
